Location: Dos Palmas
(32.4468°N, 116.8732°W)
Time: 15:57:25
(UTC+00:00)

Cosmos 1328 Rocket - Pass Details

Date: 20 June 2021
Orbit: 602 x 626 km, 82.5° (Epoch: 26 July)

Event Time Altitude Azimuth Distance (km) Brightness Sun altitude
Rises 10:33:33 0° 357° (N) 2,876 7.7 -21.7°
Reaches altitude 10° 10:35:47 10° 1° (N) 1,972 6.8 -21.4°
Maximum altitude 10:40:07 64° 82° (E) 683 3.9 -20.8°
Enters shadow 10:42:30 26° 158° (SSE) 1,228 4.8 -20.5°
